Temp
10 11 12 13 14 14 13 13 12 14 12 15 15 15 16 21 21 20 21 21 21 20 21 21 20 20 19 19 19 18 16 15 15 15 15 14 13 13 13 13 12 12 11 11
10 10 11 11 13 13 13 13 13 13 13 14 15 16 16 18 19 18 20 21 22 22 21 21 21 21 21 20 20 19 18 18 17 14 14 14 14 13 13 13 12 11 10 10
9 9 9 10 12 13 14 14 14 14 13 15 15 14 15 18 19 20 20 21 21 22 22 22 22 22 21 21 19 19 19 18 17 15 14 13 13 12 12 11 11 11 10 10
6 8 8 11 12 12 12 13 13 14 15 15 15 19 18 19 19 19 20 21 21 21 21 22 21 21 21 20 20 19 19 18 17 16 14 12 12 12 10 10 10 10 10 9
6 7 9 10 13 12 11 11 13 12 13 14 17 16 17 20 20 20 20 21 20 20 21 22 21 21 20 20 20 19 18 17 17 16 14 13 12 11 10 10 9 9 9 8
6 7 7 10 10 10 10 11 11 11 12 12 14 11 12 21 21 21 21 21 21 21 20 19 21 21 20 19 19 18 17 17 16 15 13 12 10 10 10 9 9 9 8 8
7 8 7 8 9 10 11 10 7 8 9 11 10 11 15 16 18 19 19 20 21 21 21 21 20 20 19 18 18 17 16 16 14 12 10 10 10 9 9 9 8 8 7 7
6 6 6 9 9 11 10 9 9 10 9 10 12 14 15 16 17 17 18 19 19 20 19 18 18 18 18 18 17 15 14 13 12 12 10 9 9 9 8 8 7 7 6 4
5 5 8 9 11 12 11 11 12 11 12 11 10 13 13 15 15 16 17 16 17 18 17 18 17 17 16 16 14 13 12 12 11 10 9 8 8 7 6 5 5 5 3 3
6 8 7 9 10 9 9 10 11 12 13 12 10 12 14 13 15 14 13 13 13 13 15 15 16 15 14 13 12 11 11 10 9 9 8 7 6 5 4 4 3 3 2 1
5 6 7 8 8 6 7 8 9 12 11 11 11 11 13 13 13 14 13 11 11 12 11 14 15 12 10 10 10 10 10 9 8 7 6 5 4 3 2 2 1 1 1 0
4 4 4 5 5 6 6 5 6 8 9 9 11 11 13 10 11 12 12 12 10 10 9 10 10 9 9 8 8 8 8 7 6 5 4 3 3 3 1 1 0 -0 -0 -1
4 3 3 4 3 5 6 3 5 4 5 8 11 10 9 9 8 8 9 9 12 9 7 7 7 7 7 6 6 6 6 5 4 3 2 2 1 1 1 -2 -2 -3 -3 -4
1 2 4 3 1 1 5 4 3 1 3 4 2 5 6 8 6 6 5 4 2 7 7 6 5 5 5 4 4 4 3 3 2 1 1 -0 -1 -2 -2 -3 -3 -4 -5 -5
0 1 0 1 1 2 2 0 1 2 3 1 -0 2 3 3 2 -0 -1 -1 -1 -0 -1 0 0 0 -0 1 1 1 0 -1 -2 -2 -3 -3 -4 -4 -5 -5 -6 -6 -7 -8
-3 -1 -0 -0 -2 -2 -1 -2 -1 -1 1 -4 -3 -2 -2 -3 -3 -3 -4 -3 -1 -3 -4 -4 -4 -4 -4 -3 -3 -3 -3 -3 -4 -4 -5 -5 -6 -6 -7 -7 -8 -9 -9 -10
-3 -2 -3 -3 -4 -5 -4 -4 -6 -5 -6 -7 -7 -6 -5 -4 -4 -5 -5 -6 -6 -6 -6 -6 -6 -5 -5 -5 -4 -5 -5 -5 -6 -6 -6 -7 -7 -8 -8 -9 -10 -10 -11 -12
-5 -5 -5 -5 -5 -6 -7 -6 -6 -6 -7 -7 -7 -5 -5 -6 -8 -8 -7 -7 -7 -7 -7 -7 -7 -6 -6 -6 -6 -6 -7 -7 -7 -8 -8 -9 -9 -10 -10 -11 -11 -12 -13 -13
-7 -7 -7 -7 -7 -8 -9 -9 -9 -8 -8 -7 -7 -7 -8 -8 -8 -8 -8 -7 -8 -9 -10 -9 -8 -8 -8 -8 -8 -8 -8 -9 -9 -10 -10 -11 -11 -12 -12 -13 -13 -14 -15 -15
-9 -9 -9 -9 -9 -9 -9 -9 -9 -9 -9 -8 -8 -8 -9 -10 -9 -9 -9 -9 -11 -11 -11 -10 -9 -9 -10 -10 -9 -10 -10 -10 -11 -11 -12 -12 -13 -14 -14 -15 -15 -16 -16 -17
-10 -10 -10 -10 -10 -10 -10 -10 -9 -9 -10 -9 -9 -10 -10 -11 -10 -11 -10 -11 -13 -12 -11 -11 -10 -11 -11 -11 -11 -11 -12 -12 -13 -13 -14 -15 -15 -16 -16 -17 -17 -18 -18 -19
-10 -10 -10 -10 -10 -10 -10 -10 -9 -10 -10 -10 -11 -11 -11 -12 -12 -12 -13 -13 -13 -13 -12 -12 -12 -13 -13 -13 -13 -13 -14 -14 -15 -15 -16 -16 -17 -17 -18 -18 -19 -19 -20 -20
-10 -10 -10 -10 -10 -11 -11 -11 -11 -11 -11 -11 -11 -11 -12 -13 -13 -13 -13 -15 -14 -14 -14 -14 -15 -15 -15 -15 -15 -15 -16 -16 -17 -17 -18 -18 -18 -19 -19 -19 -19 -19 -20 -20
-10 -11 -11 -11 -11 -10 -11 -11 -11 -11 -12 -12 -13 -13 -13 -13 -14 -15 -16 -16 -16 -16 -15 -16 -16 -16 -16 -17 -17 -17 -17 -18 -18 -18 -19 -19 -19 -19 -19 -20 -20 -20 -20 -21
-10 -11 -11 -11 -11 -12 -12 -12 -12 -13 -13 -13 -14 -14 -15 -15 -15 -17 -17 -17 -17 -17 -17 -18 -18 -18 -18 -18 -18 -18 -18 -19 -19 -19 -19 -19 -20 -20 -20 -20 -20 -20 -21 -21
-11 -11 -11 -12 -12 -12 -13 -13 -13 -14 -15 -15 -16 -16 -17 -17 -18 -18 -18 -19 -19 -19 -18 -18 -18 -18 -18 -18 -18 -19 -19 -19 -19 -19 -20 -20 -20 -20 -20 -21 -21 -21 -21 -21
-12 -12 -13 -13 -14 -14 -14 -14 -14 -15 -16 -16 -16 -18 -18 -19 -19 -19 -19 -19 -19 -19 -19 -19 -19 -19 -19 -19 -19 -19 -19 -19 -20 -20 -20 -20 -20 -21 -21 -21 -21 -21 -21 -21
Height
1424 1420 1414 1410 1408 1410 1414 1418 1424 1418 1422 1412 1406 1402 1399 1397 1397 1399 1399 1399 1399 1399 1401 1404 1407 1409 1411 1413 1416 1419 1423 1427 1429 1432 1439 1442 1444 1447 1452 1456 1459 1462 1465 1464
1425 1419 1416 1414 1408 1407 1408 1410 1412 1411 1411 1402 1397 1397 1396 1394 1394 1394 1393 1393 1395 1395 1396 1398 1400 1402 1405 1407 1409 1412 1415 1417 1420 1424 1429 1433 1435 1438 1442 1447 1450 1453 1452 1454
1429 1425 1422 1420 1410 1408 1403 1399 1400 1403 1399 1392 1392 1391 1389 1387 1387 1387 1388 1388 1389 1390 1390 1391 1393 1395 1398 1400 1403 1406 1408 1411 1414 1417 1419 1422 1427 1431 1433 1436 1440 1442 1444 1446
1436 1427 1435 1410 1402 1402 1403 1397 1396 1393 1390 1387 1385 1383 1383 1383 1380 1380 1382 1381 1381 1382 1383 1384 1386 1389 1392 1394 1398 1400 1402 1404 1407 1410 1412 1415 1418 1422 1426 1428 1431 1434 1437 1440
1438 1432 1419 1410 1398 1404 1405 1401 1392 1391 1386 1381 1379 1378 1377 1376 1375 1376 1375 1374 1373 1373 1375 1377 1380 1382 1384 1388 1391 1395 1398 1400 1402 1405 1407 1410 1412 1415 1419 1422 1425 1428 1430 1432
1431 1431 1426 1407 1400 1398 1396 1400 1394 1393 1387 1383 1379 1384 1377 1371 1370 1369 1369 1368 1366 1367 1368 1371 1372 1374 1376 1381 1384 1388 1392 1394 1397 1400 1402 1405 1408 1412 1415 1418 1420 1422 1424 1426
1426 1422 1417 1404 1400 1398 1409 1404 1396 1394 1392 1386 1387 1384 1374 1369 1364 1366 1365 1363 1363 1361 1362 1363 1364 1366 1369 1375 1379 1383 1387 1389 1392 1396 1399 1401 1404 1407 1409 1411 1414 1416 1419 1422
1427 1430 1426 1397 1399 1402 1401 1395 1395 1392 1390 1387 1383 1376 1370 1364 1360 1360 1358 1358 1360 1359 1360 1360 1362 1364 1368 1371 1375 1379 1382 1386 1390 1393 1396 1398 1400 1402 1404 1406 1409 1412 1415 1418
1418 1413 1397 1396 1396 1395 1395 1392 1390 1389 1386 1386 1383 1380 1376 1368 1362 1357 1354 1355 1357 1355 1357 1360 1362 1364 1366 1370 1374 1377 1380 1384 1388 1390 1393 1395 1397 1399 1401 1404 1407 1410 1414 1417
1407 1396 1396 1397 1398 1396 1396 1392 1389 1385 1378 1378 1377 1373 1372 1371 1366 1361 1357 1355 1355 1359 1357 1360 1361 1365 1365 1369 1373 1377 1380 1382 1386 1388 1390 1393 1395 1399 1401 1404 1406 1410 1414 1418
1401 1396 1394 1393 1395 1394 1388 1383 1379 1375 1375 1373 1372 1370 1368 1366 1367 1362 1361 1359 1357 1357 1360 1359 1360 1367 1368 1368 1372 1376 1379 1382 1385 1388 1389 1390 1394 1398 1402 1405 1409 1412 1415 1418
1403 1400 1399 1395 1394 1389 1386 1381 1377 1373 1372 1369 1365 1367 1363 1364 1362 1360 1360 1360 1358 1360 1362 1359 1361 1364 1367 1369 1372 1377 1378 1380 1383 1387 1389 1390 1392 1394 1399 1404 1407 1410 1413 1416
1401 1400 1397 1394 1394 1389 1384 1385 1380 1380 1371 1365 1365 1365 1364 1360 1358 1356 1356 1360 1358 1363 1364 1363 1364 1366 1368 1370 1371 1376 1377 1379 1381 1383 1386 1389 1392 1393 1393 1398 1403 1409 1413 1417
1400 1398 1394 1393 1391 1388 1382 1386 1383 1382 1371 1367 1370 1364 1360 1356 1355 1354 1356 1357 1362 1360 1362 1365 1367 1367 1367 1370 1372 1374 1376 1377 1379 1383 1384 1385 1391 1395 1400 1403 1405 1409 1414 1417
1398 1397 1396 1393 1391 1386 1384 1385 1379 1372 1366 1369 1367 1361 1358 1357 1356 1358 1360 1361 1364 1364 1361 1363 1368 1366 1369 1371 1372 1373 1376 1378 1381 1385 1390 1391 1396 1400 1403 1407 1409 1412 1414 1416
1395 1394 1393 1391 1390 1387 1382 1378 1377 1371 1368 1375 1370 1363 1363 1364 1361 1363 1366 1367 1368 1366 1370 1372 1372 1373 1373 1375 1377 1377 1380 1383 1387 1389 1393 1396 1399 1403 1406 1408 1411 1413 1415 1417
1396 1393 1391 1390 1388 1386 1381 1379 1380 1373 1376 1376 1374 1370 1370 1371 1370 1370 1373 1376 1377 1378 1380 1381 1382 1383 1384 1384 1386 1385 1388 1389 1394 1396 1396 1400 1402 1404 1407 1409 1411 1413 1415 1416
1398 1394 1393 1391 1389 1387 1384 1382 1381 1378 1378 1376 1378 1373 1376 1380 1377 1378 1379 1382 1385 1385 1388 1390 1390 1390 1390 1391 1393 1395 1394 1397 1399 1399 1401 1403 1405 1406 1407 1409 1411 1411 1412 1414
1396 1394 1393 1392 1390 1388 1387 1386 1383 1383 1384 1381 1382 1386 1385 1390 1390 1390 1389 1389 1391 1392 1396 1396 1395 1396 1396 1397 1398 1398 1399 1401 1401 1403 1405 1406 1406 1407 1408 1409 1410 1410 1411 1412
1400 1398 1397 1394 1393 1392 1389 1390 1390 1391 1393 1390 1392 1392 1393 1395 1397 1396 1394 1391 1397 1399 1402 1404 1401 1401 1402 1402 1402 1402 1403 1405 1406 1406 1407 1406 1406 1407 1407 1408 1409 1409 1410 1410
1405 1403 1402 1400 1398 1399 1398 1399 1400 1401 1402 1400 1400 1401 1403 1403 1404 1405 1401 1399 1405 1405 1404 1406 1404 1405 1407 1406 1404 1405 1406 1407 1407 1407 1406 1406 1406 1406 1406 1407 1408 1408 1407 1407
1410 1409 1408 1407 1407 1405 1407 1408 1408 1409 1410 1409 1410 1410 1410 1410 1410 1408 1409 1408 1409 1409 1409 1407 1409 1407 1409 1408 1407 1407 1407 1408 1407 1407 1406 1405 1405 1405 1405 1406 1406 1406 1405 1404
1417 1416 1415 1414 1413 1414 1416 1416 1415 1416 1416 1416 1416 1417 1416 1417 1417 1417 1414 1416 1415 1412 1411 1411 1411 1410 1411 1410 1408 1408 1408 1408 1407 1407 1406 1405 1405 1405 1405 1404 1404 1403 1402 1400
1422 1421 1421 1422 1422 1421 1420 1421 1421 1422 1422 1423 1423 1424 1424 1423 1423 1423 1422 1419 1417 1416 1416 1415 1415 1414 1413 1412 1411 1410 1409 1408 1408 1407 1406 1405 1405 1404 1404 1403 1402 1401 1399 1398
1426 1427 1427 1427 1426 1425 1426 1427 1428 1428 1428 1428 1428 1428 1428 1427 1427 1426 1424 1421 1420 1419 1419 1418 1417 1416 1415 1414 1413 1411 1410 1409 1408 1407 1407 1406 1404 1403 1402 1401 1399 1398 1396 1394
1431 1430 1430 1430 1430 1431 1432 1432 1431 1432 1432 1431 1430 1430 1429 1429 1428 1427 1426 1424 1422 1421 1420 1419 1417 1416 1415 1414 1412 1411 1410 1409 1408 1407 1406 1404 1403 1402 1401 1399 1397 1395 1393 1390
1434 1434 1434 1434 1434 1434 1434 1434 1434 1433 1433 1433 1432 1432 1431 1431 1430 1428 1426 1425 1423 1422 1421 1419 1418 1416 1415 1414 1412 1411 1410 1409 1408 1407 1405 1404 1402 1400 1398 1396 1393 1391 1388 1386
Wind_Speed
4 4 6 12 9 6 9 6 8 5 8 9 12 11 16 24 21 22 21 19 20 23 25 26 28 29 30 31 30 34 39 46 50 52 48 49 52 53 49 45 41 40 49 54
3 10 12 6 9 10 8 5 6 7 8 10 16 18 14 28 29 28 26 22 24 28 29 30 30 30 30 30 33 32 32 34 36 42 47 54 55 53 50 47 44 42 45 46
1 5 11 4 3 6 9 10 7 12 8 9 6 8 14 25 27 28 34 33 27 29 30 33 36 34 33 32 34 33 31 32 34 36 37 39 44 50 51 48 47 43 40 37
2 3 2 5 11 7 7 11 7 6 5 7 10 22 18 17 16 22 24 28 35 35 34 34 38 39 37 38 34 33 33 32 32 33 35 35 35 38 40 40 42 38 33 32
3 3 4 9 2 4 3 9 6 8 12 12 26 10 10 9 2 7 15 22 24 28 32 29 33 38 43 38 35 34 34 32 30 31 32 32 33 35 35 32 32 30 30 28
2 3 4 4 3 9 5 11 10 15 12 13 6 4 6 20 19 10 13 22 22 22 27 31 30 31 40 38 35 32 31 29 28 28 28 29 29 31 30 30 29 28 26 27
4 5 6 5 5 4 0 7 12 19 24 17 5 8 21 25 23 21 22 22 23 23 24 25 26 25 28 34 31 30 28 26 25 22 20 18 18 20 22 23 25 25 25 23
3 1 9 6 2 3 4 9 12 23 23 24 31 28 26 25 23 23 23 21 17 9 11 13 15 17 20 22 23 22 21 19 16 14 13 13 16 20 23 27 28 25 23 23
7 7 4 5 7 15 10 7 15 17 34 27 29 26 26 29 32 22 22 21 20 14 14 12 11 11 11 14 16 16 14 14 15 14 15 17 19 23 25 23 20 20 21 21
1 3 5 13 16 20 21 29 29 21 25 27 36 31 20 23 26 28 18 12 10 11 9 8 8 10 12 12 13 13 13 14 15 16 15 15 16 16 16 17 17 16 17 17
5 4 12 0 21 22 27 25 23 30 32 27 28 27 25 20 21 17 22 16 10 4 7 3 11 12 8 9 11 13 14 15 16 16 17 16 14 11 9 9 8 9 12 13
4 2 4 8 17 14 20 23 18 13 8 6 11 17 17 15 11 14 16 19 15 8 7 4 9 10 10 11 12 13 15 16 16 16 16 16 16 16 15 14 14 15 16 19
6 16 21 20 8 12 15 19 15 14 10 8 7 11 7 5 4 3 8 12 16 13 5 4 5 7 9 10 12 15 16 16 18 18 19 20 20 19 22 20 15 11 10 11
8 14 5 9 9 16 14 16 13 9 9 11 7 5 7 6 5 6 4 3 4 2 3 4 7 10 10 12 15 17 19 21 21 23 23 22 19 16 12 11 13 13 11 10
9 8 9 13 12 10 8 6 7 12 14 13 13 11 11 10 10 11 9 6 4 8 11 9 8 8 7 10 13 16 18 18 16 16 15 14 12 10 8 6 5 5 6 5
18 15 7 7 10 9 8 10 10 14 13 11 14 17 16 14 16 15 14 12 9 18 17 15 15 14 11 11 13 16 17 17 16 16 14 12 10 8 6 5 5 5 4 3
14 8 13 8 8 9 10 9 8 12 10 12 15 17 17 19 24 27 28 26 27 28 25 23 24 19 17 17 16 19 17 16 13 12 11 9 7 6 5 4 4 4 3 3
6 8 8 7 5 5 8 9 10 12 13 14 14 19 23 25 31 31 31 29 27 27 26 22 19 18 17 16 14 13 13 12 10 10 9 7 6 5 4 3 2 1 1 3
5 5 5 5 6 8 12 14 16 16 16 20 23 27 29 28 28 28 26 26 27 28 25 19 17 17 18 16 13 13 12 11 10 9 8 7 6 5 4 3 2 2 3 5
12 12 12 14 15 16 19 19 21 25 25 26 28 28 28 27 24 24 24 30 27 24 18 17 17 18 17 15 13 12 11 10 9 8 7 6 6 5 5 4 4 4 6 8
19 20 22 24 25 25 25 24 24 25 23 24 26 27 27 25 23 22 25 28 21 16 16 14 15 15 14 12 11 10 9 8 7 7 6 7 6 5 5 6 6 7 8 10
22 24 25 26 27 28 26 25 25 25 25 25 25 25 24 24 22 23 23 22 16 12 12 13 13 12 11 10 10 9 8 7 7 7 7 7 7 7 7 7 8 9 11 11
24 24 25 26 26 26 24 23 23 22 22 20 19 18 18 18 17 16 19 16 13 12 12 12 11 11 10 10 10 9 9 8 8 8 8 8 8 9 9 10 11 11 12 13
21 22 22 21 20 21 23 20 19 18 18 17 16 15 14 13 15 15 14 12 11 10 10 11 11 11 11 11 10 10 10 9 9 9 9 9 9 10 11 11 12 13 13 14
16 16 15 15 17 18 16 14 14 14 12 13 13 12 11 11 10 10 9 9 9 9 10 10 11 11 11 11 10 10 10 10 11 11 11 11 12 13 13 14 15 15 16 17
12 12 13 12 13 12 11 9 11 12 9 9 10 10 9 9 8 7 8 9 10 10 11 12 12 12 12 12 11 11 12 12 12 12 13 14 14 14 14 15 15 17 18 19
10 10 10 10 10 9 7 7 6 7 7 7 7 8 6 6 6 7 9 10 11 12 12 12 12 12 12 12 12 12 11 11 12 13 13 14 14 15 16 17 18 19 19 20
Wind_Direction
296 335 304 260 247 232 208 211 219 218 213 237 232 224 234 251 261 260 265 278 269 242 241 241 241 238 241 242 244 245 246 246 246 245 243 245 247 252 253 257 261 260 253 259
291 344 339 301 264 255 254 226 242 237 253 233 245 252 268 263 264 269 268 265 262 250 247 247 239 234 231 236 239 241 245 250 254 252 248 246 249 252 253 253 256 259 257 260
250 352 332 0 351 278 265 247 200 246 217 253 258 240 241 254 259 263 267 267 262 266 250 246 241 240 237 240 240 242 245 251 254 255 254 249 250 253 255 254 252 257 258 252
221 40 276 236 318 243 269 279 274 298 234 228 237 263 259 257 270 270 271 274 263 263 253 248 244 240 241 243 244 245 246 248 253 256 255 255 253 252 253 256 251 256 252 253
165 193 295 302 56 22 59 301 289 270 263 251 261 259 250 227 234 303 310 301 288 269 248 245 250 246 241 239 240 244 246 249 251 253 252 254 255 255 255 249 246 244 255 248
164 187 242 250 354 346 329 283 3 344 327 299 264 230 245 248 267 287 310 323 299 284 263 248 255 248 241 237 237 241 244 246 247 250 248 250 254 254 254 259 252 248 236 223
205 243 282 232 273 313 195 289 327 336 330 344 334 295 299 299 290 285 300 306 304 288 272 257 250 241 232 229 237 241 242 244 242 245 254 260 249 251 247 237 221 211 208 210
121 162 273 199 100 175 227 295 307 337 324 323 324 347 358 350 330 309 295 294 281 271 266 243 227 223 225 231 237 237 238 243 243 252 252 257 248 235 224 209 204 208 209 196
179 210 262 216 236 287 274 278 295 320 315 300 300 317 338 2 359 338 308 299 264 216 214 215 218 225 236 238 235 234 232 234 238 245 235 234 225 213 204 202 207 204 197 195
165 238 262 305 327 338 316 283 280 287 290 285 289 290 316 338 353 4 347 315 271 270 228 238 240 247 237 236 234 227 222 227 234 222 220 215 208 202 202 198 197 198 202 201
267 341 331 54 343 336 329 332 293 276 272 274 277 296 291 306 327 349 8 355 334 291 260 247 298 272 241 228 224 223 227 227 228 221 215 205 199 193 201 205 215 239 225 228
245 25 279 271 336 345 349 349 349 325 259 249 267 291 301 316 335 347 352 5 3 334 290 245 216 219 223 216 216 219 211 207 207 211 205 202 203 198 195 202 203 210 221 222
300 310 302 302 296 329 356 341 338 330 352 6 350 324 311 283 312 49 25 11 347 342 295 243 226 212 209 210 211 217 214 207 200 198 193 191 190 196 193 184 191 185 186 190
314 328 323 350 331 333 346 329 319 321 18 27 26 26 25 26 10 25 33 130 127 115 289 257 221 207 208 212 206 204 199 195 194 189 186 179 175 166 160 165 172 173 188 210
273 308 301 312 312 327 344 329 354 15 19 19 30 44 41 48 55 55 53 55 79 102 101 140 159 137 156 187 196 188 181 170 166 157 150 142 142 141 141 149 163 183 196 216
313 313 296 331 329 344 7 26 18 33 30 25 40 49 56 64 74 74 75 88 99 87 88 94 93 89 102 114 129 126 126 127 130 130 128 130 134 137 139 141 151 163 188 226
335 341 335 341 343 0 23 36 47 58 62 60 68 80 82 89 93 92 92 92 93 92 90 89 88 93 96 101 107 110 114 113 120 125 126 129 133 136 139 146 154 161 181 225
303 308 317 322 345 22 46 57 64 75 78 87 94 98 102 101 99 99 99 99 95 89 82 82 87 89 88 87 91 97 99 102 105 101 105 111 112 113 118 129 140 163 231 266
27 38 41 60 69 80 79 81 87 93 102 103 106 102 103 101 101 102 103 97 88 82 74 74 78 83 82 77 79 81 83 86 86 89 88 88 89 86 74 55 33 357 320 309
79 84 90 91 93 94 95 97 102 105 107 109 110 108 104 102 100 99 96 88 82 83 82 77 75 72 70 68 65 67 67 68 70 72 71 65 58 49 37 20 356 333 319 313
94 95 96 96 96 97 98 102 105 103 104 104 102 100 100 100 98 95 90 87 83 81 77 72 67 63 56 53 50 50 51 53 55 56 51 46 39 29 14 356 340 329 322 318
100 98 97 98 98 97 98 101 101 102 100 98 98 99 96 91 89 86 83 81 78 69 67 62 55 52 46 43 45 44 42 40 38 36 32 27 19 11 1 346 334 328 324 321
102 103 103 99 98 100 102 98 96 97 97 93 90 88 88 90 86 85 83 76 70 58 52 50 47 39 33 34 39 41 42 41 38 33 28 21 13 5 356 351 348 343 340 335
107 102 99 102 104 100 93 92 93 93 94 94 90 89 85 83 83 76 77 72 57 43 39 43 38 38 39 42 43 42 41 40 36 30 21 13 7 1 354 349 345 344 342 339
99 101 101 97 92 89 92 95 97 94 94 96 94 87 79 75 65 74 55 50 45 37 39 44 42 42 42 44 43 40 36 31 25 19 11 5 359 355 351 348 344 339 336 333
103 96 92 90 89 92 95 98 91 91 85 85 84 77 72 69 66 58 47 40 35 33 33 37 35 33 31 29 26 22 19 15 8 2 357 352 347 343 339 336 333 331 329 329
96 95 94 95 92 84 80 77 73 80 74 65 74 83 69 57 46 34 31 25 24 24 23 22 21 17 13 12 10 7 1 354 348 344 341 339 338 336 334 332 330 330 329 329